Starlink 2434

decayed
NORAD ID: 47842 Int'l Des: 2021-018 Owner: SPXS Country: US Constellation: starlink
LEOCIRCULAR
Gruppe

Über Starlink 2434

Beschreibung wird geladen...

Höhenverlauf

Altitude vs Time

uPlot chart will show altitude changes over time

Zweizeiliger Elementsatz

1 47842U 21018BH 25012.91384565 .18637891 12516-4 34326-3 0 9991
2 47842 53.0342 328.3159 0003888 220.3596 252.6289 16.47392888213005
Epoch: 12. Jan. 2025 • Age: 7217 hours

Aktueller Status

Position data unavailable
Startdatum 11. März 2021
Alter 4.6 years
Verglühungsdatum 12. Jan. 2025
Typ internet

Technische Details

Klassifizierung Payload
Masse 260.00 kg
Trockenmasse 248.00 kg
Gesamtmasse 260.00 kg
Länge 0.20 m
Durchmesser 2.80 m
Spannweite 9.00 m
Form Box + pan
Hersteller SPXS
Bus-Typ Starlink
Phasenstatus Unknown Transfer Status
Besitzer/Staat SPXS/US

Große Konstellationen

Loading constellations...